TIME,DELAY(SENSOR),PRES,OXYGEN,RAWTEMP,T(OPTODE),TCPHASE,FLUOR,BETA(BETA700),BETA(BETA412),BETA(BETA440),CDOM,C(CSC),ED(ED412.20),ED(ED444.00),ED(ED489.60),ED(ED554.30),LU(LU412.10),LU(LU443.90),LU(LU489.70),LU(LU554.70),COMP,TILTX,TILTY,CHECK
1364098696,5809,865.7199707031250000,33.9812393188476560,561.6030273437500000,4.4362049102783200,56.4649085998535160,55,99,101,79,83,15508,0,0,0,0,2147121718,2147772708,2147572982,2147570084,2213,3,13,29159
1364102292,5807,936.2500000000000000,40.6094398498535160,570.2775878906250000,4.1669330596923830,55.5281295776367200,55,99,99,77,82,15507,0,0,0,0,2147121088,2147774043,2147571273,2147569892,2132,2,13,44048
1364105892,5809,949.4000244140625000,40.9492988586425800,570.4971923828125000,4.1601090431213380,55.4815597534179700,56,97,100,78,82,15509,0,0,0,0,2147127094,2147774692,2147574921,2147570404,3372,2,13,1410
1364109492,5809,984.0599975585938000,41.3527488708496100,572.2191162109375000,4.1065831184387210,55.4370307922363300,54,96,100,78,82,15509,0,0,0,0,2147125805,2147773558,2147577782,2147567789,163,2,13,1724
1364113092,5808,993.5100097656250000,41.2971611022949200,572.2094116210938000,4.1068820953369140,55.4476699829101560,55,98,99,76,82,15508,0,0,0,0,2147123748,2147768054,2147570962,2147567798,3290,2,13,44412
1364116692,5808,997.8499755859375000,41.1950683593750000,572.1187133789062000,4.1097030639648440,55.4602012634277340,54,98,100,77,82,15507,0,0,0,0,2147123035,2147772315,2147575140,2147565577,3186,2,13,6886
1364120292,5811,996.9600219726562000,41.0153884887695300,572.3975830078125000,4.1010279655456540,55.4918289184570300,55,98,100,76,82,15508,0,0,0,0,2147124653,2147769353,2147573312,2147568402,51,2,13,49977
1364123892,5809,998.4799804687500000,40.9362602233886700,572.1154174804688000,4.1098041534423830,55.4994010925293000,55,98,100,77,83,15507,0,0,0,0,2147122459,2147773394,2147572379,2147569042,204,2,13,8258
1364127492,5811,996.2800292968750000,40.4883995056152340,572.1895141601562000,4.1075019836425780,55.5688896179199200,55,97,98,76,82,15500,0,0,0,0,2147122294,2147777874,2147578596,2147569947,132,2,13,26248
1364131092,5811,1002.0499877929688000,40.7971496582031250,572.2907714843750000,4.1043491363525390,55.5218391418457000,55,96,98,77,82,15507,0,0,0,0,2147121910,2147772461,2147573458,2147570678,35,2,13,27549
1364134692,5810,1001.4699707031250000,40.6279411315918000,572.2521972656250000,4.1055507659912110,55.5447998046875000,54,99,101,77,82,15506,0,0,0,0,2147125805,2147777371,2147578102,2147570221,35,2,13,14228
1364138292,5810,992.1500244140625000,40.4341583251953100,573.4301757812500000,4.0689158439636230,55.5891609191894500,53,98,101,78,83,15494,0,0,0,0,2147123529,2147770267,2147578285,2147567497,3454,2,13,30117
1364141892,5809,993.4400024414062000,41.2933502197265600,573.7562255859375000,4.0587749481201170,55.4671897888183600,56,96,99,76,83,15507,0,0,0,0,2147121408,2147771529,2147578093,2147567204,779,2,13,53618
1364145492,5813,993.8699951171875000,41.3847198486328100,574.2968139648438000,4.0419578552246090,55.4550018310546900,55,99,99,77,83,15506,0,0,0,0,2147121773,2147770880,2147574875,2147565312,89,2,13,8840
1364149092,5809,991.2999877929688000,42.2163505554199200,574.4105224609375000,4.0384202003479000,55.3371582031250000,54,97,99,78,81,15505,0,0,0,0,2147123072,2147770477,2147577554,2147567314,3299,3,13,44483
1364152692,5807,992.5900268554688000,42.2932090759277340,574.2672729492188000,4.0428729057312010,55.3267707824707000,55,98,100,78,82,15504,0,0,0,0,2147122962,2147774683,2147576502,2147566436,310,2,13,43035
1364156292,5810,996.2299804687500000,41.3719596862793000,574.3151245117188000,4.0413880348205570,55.4564399719238300,55,98,101,77,82,15504,0,0,0,0,2147126409,2147774107,2147574363,2147564708,196,3,13,62979
1364159892,5810,996.1500244140625000,41.2839508056640600,574.0391845703125000,4.0499711036682130,55.4654197692871100,55,98,100,77,83,15500,0,0,0,0,2147122688,2147777828,2147570651,2147568100,129,2,13,18103
1364163492,5810,994.3699951171875000,40.7456817626953100,574.0023803710938000,4.0511169433593750,55.5495300292968750,55,98,99,77,81,15503,0,0,0,0,2147122697,2147765778,2147575890,2147568740,577,2,13,43334
1364167092,5809,1001.3400268554688000,41.3150100708007800,573.9467163085938000,4.0528488159179690,55.4604606628418000,55,97,99,77,82,15499,0,0,0,0,2147122560,2147767734,2147571008,2147567689,3468,2,13,59550
1364170692,5810,1001.1599731445312000,41.0013999938964840,573.8289184570312000,4.0565128326416020,55.5091514587402340,55,101,100,77,82,15499,0,0,0,0,2147125440,2147778304,2147572196,2147568731,3317,2,13,60103
1364174292,5812,998.4199829101562000,40.8744010925293000,573.9552001953125000,4.0525841712951660,55.5276718139648440,54,97,99,77,82,15502,0,0,0,0,2147123894,2147775286,2147573860,2147570029,93,2,13,49555
1364177892,5811,995.7600097656250000,40.6426200866699200,573.9921875000000000,4.0514321327209470,55.5594711303710940,55,97,100,77,83,15503,0,0,0,0,2147124534,2147771163,2147573677,2147568676,115,2,13,28227
1364181492,5813,991.9500122070312000,42.0133895874023440,574.0496826171875000,4.0496439933776855,55.3642616271972660,54,97,101,78,81,15501,0,0,0,0,2147122944,2147772105,2147573257,2147566930,65,3,13,62266
1364185092,5812,992.5499877929688000,42.8368492126464840,575.1718139648438000,4.0147318840026855,55.2546882629394500,56,98,100,78,82,15505,0,0,0,0,2147123830,2147771218,2147576420,2147572114,25,2,13,12293
1364188692,5810,988.0599975585938000,43.2888412475585940,575.5532226562500000,4.0028629302978520,55.1913185119628900,54,99,100,78,81,15502,0,0,0,0,2147124434,2147773494,2147575149,2147569243,3333,2,13,21765
1364192292,5811,999.4000244140625000,43.6706809997558600,575.5792236328125000,4.0020518302917480,55.1403312683105500,54,98,99,78,83,15500,0,0,0,0,2147124480,2147771712,2147575058,2147571062,79,2,13,1685
1364195892,5810,997.0499877929688000,43.3172492980957000,575.1165771484375000,4.0164470672607420,55.1852416992187500,54,98,100,77,83,15499,0,0,0,0,2147122331,2147771355,2147576265,2147569590,138,2,13,9477
1364199492,5810,997.6099853515625000,42.3000297546386700,573.9423217773438000,4.0529861450195310,55.3172988891601560,55,99,101,79,82,15498,0,0,0,0,2147121590,2147770953,2147574857,2147569152,3186,2,13,30915
1364203092,5807,996.4299926757812000,42.1755981445312500,573.8978881835938000,4.0543651580810550,55.3356895446777340,54,98,100,79,82,15499,0,0,0,0,2147124452,2147772178,2147577435,2147571236,392,2,13,60556
1364206692,5811,1001.4299926757812000,42.6899414062500000,574.9963989257812000,4.0201888084411620,55.2755813598632800,55,96,101,78,81,15500,0,0,0,0,2147125449,2147771638,2147576557,2147567798,357,2,13,55418
1364210292,5809,1007.4600219726562000,42.2994804382324200,573.8563232421875000,4.0556597709655760,55.3193817138671900,55,98,99,77,81,15500,0,0,0,0,2147124416,2147773284,2147577353,2147570322,3315,2,13,7023
1364213892,5809,1016.0599975585938000,41.3441505432128900,573.0612792968750000,4.0803909301757810,55.4501991271972660,56,100,100,78,82,15498,0,0,0,0,2147123181,2147771529,2147573449,2147570313,379,3,13,40691
1364217492,5811,1013.5599975585938000,40.6683807373046900,573.1046142578125000,4.0790438652038570,55.5543098449707000,55,98,100,78,82,15498,0,0,0,0,2147123904,2147768530,2147578925,2147571200,42,2,13,13768
1364221092,5808,1003.7399902343750000,40.4631118774414060,573.3615112304688000,4.0710539817810060,55.5849304199218750,55,98,100,79,82,15501,0,0,0,0,2147122889,2147776512,2147575378,2147570825,428,2,13,5931
1364224692,5811,997.2000122070312000,40.9769783020019500,574.1591186523438000,4.0462422370910645,55.5175514221191400,54,98,99,77,81,15497,0,0,0,0,2147122505,2147771510,2147571236,2147568128,3459,2,13,25891
1364228292,5811,992.0800170898438000,42.5619506835937500,574.9888916015625000,4.0204219818115230,55.2954902648925800,56,98,100,78,81,15500,0,0,0,0,2147125513,2147771702,2147575707,2147571373,1656,2,13,62148
1364231892,5806,997.5399780273438000,42.2225990295410160,574.8649902343750000,4.0242772102355960,55.3410606384277340,55,96,99,78,83,15500,0,0,0,0,2147126409,2147773549,2147575552,2147566720,174,2,13,8172
1364235492,5808,1000.4099731445312000,43.4456291198730500,575.2360839843750000,4.0127282142639160,55.1670188903808600,54,98,100,78,82,15496,0,0,0,0,2147123821,2147770925,2147577142,2147568128,315,2,13,50729
1364239092,5807,1001.5399780273438000,42.5788192749023440,575.0620727539062000,4.0181450843811035,55.2890892028808600,55,98,99,76,82,15495,0,0,0,0,2147123172,2147772699,2147577152,2147568320,234,2,13,31134
1364242692,5811,1000.2199707031250000,42.1760902404785160,574.4260864257812000,4.0379328727722170,55.3393402099609400,55,101,100,78,82,15496,0,0,0,0,2147124470,2147772836,2147576649,2147568841,3433,2,13,57968
1364243157,5811,1003.7899780273438000,42.1180000305175800,574.5015258789062000,4.0355868339538570,55.3503417968750000,54,98,101,78,82,15498,0,0,0,0,2147128859,2147768484,2147571684,2147569472,158,2,13,52106
